Home > Time Zones > World Clock > Weather > Chad > Sarh > Past weeks

Flag for Chad Weather past 2 weeks in Sarh, Chad

Now
91 °F

Partly sunny.


Feels Like: 100 °F
Forecast: 72 / 86 °F
Wind: No wind

Location: Sarh Airport

Current Time: Aug 20, 2014 at 5:40:52 PM

Latest Report: Aug 20, 2014 at 5:00 PM


Visibility: N/A

Pressure: 29.83 "Hg

Humidity: 56%

Dew point: 73 °F

Location of SarhLocation

Historic Weather in Sarh — Graph

°F

Sarh temperature yesterday

Maximum temperature yesterday: 88 °F (at 4:00 PM)
Minimum temperature yesterday: 73 °F (at 8:00 AM)
Average temperature yesterday: 80 °F

Past Weeks' High & Low Weather Summary

 TemperatureHumidityPressure
High91 °F (Aug 20, 2:00 PM)100% (Aug 7, 11:00 AM)30.04 "Hg (Aug 7, 11:00 AM)
Low57 °F (Aug 14, 11:00 AM)21% (Aug 18, 2:00 AM)29.83 "Hg (Aug 7, 4:00 PM)
Average78 °F82%29.93 "Hg
* Reported Aug 5 5:00 PM — Aug 20 4:00 PM, Sarh, Weather by CustomWeather, © 2014

Note: Actual official high and low records may vary slightly from our data, if they occured in-between our weather recording intervals... More about our weather records

Advertising

Sarh weather history for previous 24 hours

 ConditionsComfort  
Time TempWeatherWind HumidityBarometerVisibility
4:00 PM
Aug 20
91 °FScattered clouds.No wind52%29.83 "HgN/A
3:00 PM90 °FScattered clouds.No wind55%29.86 "HgN/A
2:00 PM91 °FScattered clouds.No wind52%29.89 "HgN/A
1:00 PM88 °FScattered clouds.6 mph59%29.92 "HgN/A
12:00 PM88 °FWarm.3 mph59%29.98 "HgN/A
11:00 AM88 °FScattered clouds.No wind59%29.95 "HgN/A
10:00 AM84 °FPassing clouds.2 mph62%29.86 "HgN/A
9:00 AM82 °FPassing clouds.No wind74%29.98 "HgN/A
8:00 AM79 °FWarm.No wind84%29.98 "HgN/A
7:00 AM75 °FPassing clouds.No wind89%29.98 "HgN/A
6:00 AM73 °FMild.No wind94%29.95 "HgN/A
5:00 AM75 °FClear.No wind94%29.95 "Hg10 mi
4:00 AM75 °FClear.No wind94%29.92 "Hg10 mi
3:00 AM75 °FClear.No wind94%29.95 "Hg10 mi
1:00 AM77 °FWarm.No wind89%29.95 "HgN/A
12:00 AM77 °FThunderstorms. Passing clouds.No wind94%29.95 "HgN/A
11:00 PM
Aug 19
79 °FThunderstorms. Partly cloudy.No wind89%29.98 "HgN/A
10:00 PM79 °FWarm.No wind89%29.98 "HgN/A
9:00 PM81 °FWarm.No wind79%29.95 "HgN/A
8:00 PM82 °FPassing clouds.No wind74%29.95 "HgN/A
7:00 PM84 °FPassing clouds.No wind70%29.92 "HgN/A
6:00 PM84 °FPassing clouds.No wind70%29.89 "HgN/A
5:00 PM88 °FPassing clouds.No wind55%29.89 "HgN/A
Weather by CustomWeather, © 2014

See weather overviewHow to use our weather pages